Location: Drocourt
(49.0571°N, 1.7669°E)
Time: 23:28:18
(UTC+00:00)

SR - Pass Details

Date: 21 April 2024
Orbit: 579 x 859 km, 66.7° (Epoch: 25 May)

Event Time Altitude Azimuth Distance (km) Brightness Sun altitude
Rises 07:29:57 0° 326° (NW) 3,080 ? 25.1°
Reaches altitude 10° 07:33:23 10° 350° (N) 2,096 ? 25.7°
Maximum altitude 07:36:01 15° 24° (NNE) 1,758 ? 26.1°
Drops below altitude 10° 07:38:33 10° 59° (ENE) 2,006 ? 26.5°
Sets 07:41:43 0° 84° (E) 2,864 ? 27.0°
